Wind_Speed
12 11 11 10 11 11 10 9 9 9 9 10 11 11 11 10 8 7 5 4 3 2 1 1 1 2 2 2 2 2 3 3 3 4 4 4 5 5 5 5 6 6 6 7 7 7 7 8 8 9 9 9 10 10 11 11 12 12 12 13 13 13 13 14 15 15 15 16 16 16 16 16 17 17 17 17 17 17 17 17 17 17 17 17 17
13 13 13 12 12 12 11 11 10 10 10 10 10 11 11 11 11 10 9 7 6 4 3 1 1 1 2 2 2 3 3 3 3 4 4 4 5 5 6 6 6 7 7 8 8 9 9 10 10 10 11 11 12 12 13 13 13 13 14 14 14 14 14 15 15 16 16 16 16 16 17 17 17 17 17 17 17 16 16 16 16 16 16 15 15
14 14 14 14 14 13 13 12 11 11 11 10 10 10 10 11 11 11 10 10 9 8 7 6 5 5 4 4 4 4 3 3 3 3 3 4 4 5 6 6 7 8 8 9 9 10 10 10 11 11 11 11 11 12 12 12 12 12 13 13 13 13 13 13 13 14 14 14 14 14 15 15 15 15 15 15 14 14 14 14 14 14 13 13 13
13 13 13 14 14 14 14 13 13 12 11 11 10 10 10 10 10 10 10 10 9 9 8 8 8 7 7 8 8 7 6 6 5 4 4 4 4 4 5 5 5 6 6 6 7 7 8 8 8 8 9 9 9 9 9 9 9 10 10 10 10 10 10 10 11 11 11 12 12 12 12 12 13 13 13 13 13 13 13 13 13 13 13 13 12
13 12 12 12 13 13 14 13 13 13 12 11 10 10 9 9 9 10 9 9 8 8 8 8 7 7 7 8 8 8 7 7 7 6 7 7 6 6 6 6 6 6 6 6 6 6 6 7 7 7 8 8 8 8 8 9 9 9 9 10 10 10 10 10 10 10 10 11 11 11 11 12 12 12 13 13 12 12 13 13 13 13 13 13 13
12 11 11 11 12 12 12 12 13 13 12 12 11 10 10 9 9 9 9 9 8 8 8 8 8 7 7 7 7 8 7 7 7 7 7 7 6 6 6 6 6 6 6 6 6 6 7 7 8 8 8 8 9 9 9 9 9 9 10 10 10 11 11 11 11 11 11 11 12 11 12 12 12 12 12 13 13 13 13 13 13 13 13 14 14
10 10 10 10 10 11 11 11 12 12 11 11 11 11 10 10 9 9 9 9 9 8 8 8 8 7 7 7 8 7 7 7 6 6 7 6 6 6 6 5 5 5 6 6 6 7 7 8 8 8 8 9 9 9 10 10 10 10 10 10 10 10 11 11 12 12 12 12 12 12 12 12 12 12 12 13 13 13 13 13 13 14 14 14 14
9 9 9 9 9 10 10 10 10 11 10 10 10 10 10 9 9 9 9 9 9 9 9 8 8 7 7 8 8 7 7 6 6 6 6 6 6 6 5 5 5 5 6 6 6 7 7 8 8 8 8 9 9 9 9 10 10 10 10 10 10 10 11 11 11 11 12 12 12 12 13 13 13 13 13 13 13 13 13 13 13 14 14 14 14
8 7 7 7 8 8 9 9 9 10 10 9 9 9 9 8 8 8 8 9 9 9 8 8 8 7 7 7 7 7 7 6 6 6 6 5 5 5 5 5 5 5 5 6 6 6 7 7 8 8 8 8 8 9 9 10 10 10 10 10 10 10 11 11 11 11 11 11 11 12 12 12 12 12 13 13 13 13 13 13 13 14 14 14 14
7 6 6 6 6 7 7 7 8 8 9 9 8 8 8 8 7 7 7 7 7 7 7 7 7 6 6 6 6 6 5 5 5 5 5 5 5 4 4 5 5 5 5 6 6 6 7 7 8 8 9 9 9 9 9 10 10 11 11 11 11 11 11 11 11 11 11 11 11 11 11 11 11 12 12 13 13 13 13 14 14 14 15 15 16
7 5 5 5 5 5 5 6 6 7 7 7 7 7 7 7 6 6 6 6 6 6 6 6 5 5 5 5 5 5 4 4 4 4 4 4 4 4 4 5 5 6 6 6 7 7 7 8 8 9 10 10 10 10 11 11 11 12 12 12 12 12 12 11 12 12 12 12 12 12 12 12 12 12 13 13 13 14 14 15 16 16 17 17 17
7 5 4 4 4 4 4 4 5 5 6 6 6 6 6 6 5 5 5 5 5 5 5 5 5 5 4 4 4 4 4 4 4 4 5 5 5 5 5 6 6 7 7 8 8 8 9 9 9 10 10 11 12 12 12 12 13 13 13 13 13 13 13 13 13 13 13 13 13 13 13 13 13 14 14 15 15 15 16 17 17 18 18 18 19
7 6 4 3 3 3 3 3 4 4 4 5 5 5 5 4 4 4 4 4 4 4 4 4 4 4 4 4 4 4 4 4 5 5 5 6 6 6 7 7 8 8 9 9 10 10 10 10 11 11 11 12 12 13 13 14 14 14 14 14 14 13 13 13 14 14 14 14 14 14 15 15 15 16 16 17 17 17 17 18 18 19 19 19 19
7 6 5 3 2 2 2 2 3 3 3 4 4 3 3 3 3 3 4 4 4 4 4 5 5 4 4 4 5 5 5 6 6 6 6 7 7 7 8 8 9 10 10 11 11 12 12 12 12 13 13 13 13 13 14 14 14 15 15 14 14 14 14 14 14 14 14 15 15 15 16 16 16 17 17 18 18 19 19 19 19 19 20 20 20
8 7 6 4 2 2 1 1 2 2 3 3 3 3 3 3 3 3 3 4 4 5 5 5 5 5 5 5 5 5 6 6 6 7 7 7 8 8 9 9 10 10 11 11 12 12 13 13 14 14 14 15 15 15 15 15 16 16 16 16 15 15 15 15 15 15 15 15 16 16 16 17 17 18 18 19 19 20 20 20 21 21 21 22 22
7 7 6 5 4 2 1 1 1 1 2 2 3 3 3 3 3 3 3 3 4 4 5 5 6 6 5 5 5 6 6 6 6 7 7 7 8 8 9 9 10 10 11 11 12 12 13 13 14 14 15 15 16 16 16 16 17 17 17 17 17 16 16 16 16 16 16 16 17 17 17 17 18 19 19 20 20 21 21 22 22 22 23 23 24
7 7 7 6 5 4 2 1 1 1 2 2 3 3 3 3 3 3 3 3 3 4 4 5 5 6 6 5 6 6 6 6 6 6 7 7 7 8 9 9 10 10 11 12 12 12 13 13 14 14 15 16 16 16 17 17 17 18 18 18 18 18 17 18 18 18 18 18 18 18 19 19 19 20 20 21 21 22 22 22 23 23 24 24 24
7 7 7 6 6 5 4 3 1 1 2 2 3 3 3 3 3 3 3 3 4 4 4 4 5 5 6 6 6 6 6 6 6 7 7 8 8 9 10 10 11 12 12 13 14 14 14 15 15 15 16 16 17 17 17 17 18 18 19 19 19 19 19 19 19 19 19 20 20 20 20 20 20 21 21 21 22 22 23 23 24 24 24 25 24
7 7 6 6 6 6 5 4 2 1 1 2 2 2 3 3 3 3 3 3 4 4 4 5 5 6 6 6 7 7 7 7 8 8 9 9 10 11 12 12 13 13 14 15 15 16 16 16 17 17 17 18 18 18 18 18 18 19 19 19 19 19 19 20 20 20 20 21 21 21 21 21 21 21 22 22 22 23 23 24 24 25 25 25 24
8 7 6 6 6 7 6 5 4 2 1 2 2 1 2 3 3 3 4 4 4 5 5 5 6 7 7 8 8 8 9 9 10 10 11 11 12 13 13 14 14 15 15 16 17 17 17 17 18 18 19 19 20 20 20 20 20 20 20 20 20 20 20 20 20 21 21 21 22 22 22 22 22 22 22 22 23 23 24 24 25 25 25 24 23
8 7 7 6 6 6 6 6 5 4 3 2 3 3 3 3 4 5 5 5 6 6 7 7 7 8 8 9 10 10 10 11 11 12 12 13 14 14 15 15 16 16 17 17 18 18 18 18 19 19 19 20 21 21 21 21 21 22 21 21 21 22 21 21 21 21 22 22 22 22 22 22 22 22 22 23 23 23 24 25 25 25 24 23 22
8 8 8 8 7 7 6 6 5 5 4 4 4 4 4 5 5 6 6 7 7 7 8 8 8 9 9 10 11 11 12 12 13 13 14 14 15 16 16 16 17 17 18 18 19 19 19 19 20 19 20 20 21 21 21 21 22 22 22 22 23 23 23 23 23 22 22 22 22 22 23 23 23 23 23 23 23 24 25 25 25 24 23 23 22
7 8 8 8 8 8 7 6 6 5 5 5 5 5 6 5 6 7 7 7 7 8 8 9 9 10 10 10 11 12 13 13 14 14 15 15 16 16 17 17 17 18 18 19 19 19 20 20 20 20 20 20 21 22 22 22 22 22 22 23 23 23 24 24 24 24 23 23 23 23 23 23 24 24 24 24 24 25 26 25 25 24 23 22 22
6 7 8 8 9 9 9 8 7 6 6 5 5 6 6 6 7 7 7 8 8 8 9 9 10 10 11 11 12 12 13 14 14 15 15 16 16 17 17 17 17 18 18 19 19 19 20 20 20 21 21 21 22 22 23 23 23 23 23 23 23 23 24 24 25 25 24 24 23 23 24 24 24 24 24 24 25 25 26 26 25 24 24 23 23
6 7 8 8 9 9 9 9 8 8 7 6 6 6 7 7 7 7 8 8 8 8 9 9 10 11 11 12 12 13 13 14 15 15 15 16 16 16 17 17 17 18 18 19 19 20 20 20 21 21 21 22 23 23 24 24 24 24 24 24 23 23 23 24 24 24 24 24 24 24 24 24 24 24 25 25 25 25 25 25 25 25 24 24 24
6 7 8 8 8 9 9 9 8 8 8 7 7 7 7 7 7 7 8 8 9 9 9 10 10 11 12 12 13 13 14 14 14 15 15 15 15 16 17 17 18 18 19 19 20 20 21 21 21 22 22 23 23 24 25 25 25 25 26 25 25 24 24 24 24 24 24 24 24 24 24 24 24 24 25 25 25 25 24 24 24 24 24 25 25
6 7 8 9 9 9 9 9 8 8 8 8 8 8 9 9 9 9 9 9 10 10 11 11 11 11 12 13 13 13 14 14 15 15 15 16 16 17 18 18 19 19 20 21 21 22 22 22 22 23 23 23 23 24 25 25 26 26 26 26 26 26 25 25 24 25 24 24 24 24 24 24 24 24 25 26 26 26 25 24 23 24 25 25 25
6 7 9 10 10 10 9 9 9 8 8 8 9 9 10 10 10 10 10 10 11 11 12 12 12 12 12 13 13 14 14 14 15 15 16 16 17 18 19 20 20 21 22 22 23 23 24 24 24 24 24 24 23 24 25 25 26 26 25 25 25 25 25 25 25 25 25 24 24 24 24 24 25 25 25 26 26 26 26 25 24 25 25 26 26
6 7 8 10 11 11 10 10 10 9 9 9 9 9 10 10 11 11 11 11 11 12 13 13 13 13 13 13 14 14 14 15 15 16 17 18 19 20 21 23 23 24 24 24 25 25 26 26 25 25 25 25 24 24 24 25 25 25 25 25 25 25 24 25 25 25 25 25 25 25 25 25 25 26 26 26 27 27 27 27 26 26 26 27 27
6 7 8 9 11 11 11 10 10 10 10 10 10 10 10 10 11 11 11 11 12 13 13 14 14 14 14 14 14 15 15 16 17 18 19 20 22 23 24 26 26 27 27 27 27 28 28 28 28 27 27 26 26 25 24 24 24 25 25 24 25 25 24 24 25 26 25 25 25 25 26 26 26 26 27 27 27 27 28 28 28 27 27 28 28
6 7 8 9 10 11 12 11 11 11 11 11 10 11 11 11 11 12 12 12 12 13 14 15 15 14 15 15 16 16 17 18 19 20 22 23 25 26 27 28 29 29 29 29 29 29 29 29 29 28 28 28 27 26 25 24 24 24 24 24 25 26 24 24 25 26 26 26 26 26 26 27 27 27 27 28 27 27 28 28 28 28 28 29 29
6 7 8 9 10 11 12 12 12 12 12 12 11 11 11 11 11 12 13 13 13 14 15 16 16 16 16 17 18 18 20 20 21 22 24 26 27 28 29 29 30 30 30 30 30 29 29 29 29 29 29 28 27 26 25 24 24 24 25 25 26 27 26 25 24 25 26 26 26 27 27 27 27 27 28 28 28 27 28 28 29 28 28 28 29
6 7 8 9 10 11 12 12 12 12 13 13 12 11 11 11 12 12 13 14 14 15 16 17 18 18 18 19 20 20 21 22 23 24 26 27 29 29 28 28 29 30 31 31 30 30 29 29 28 28 28 28 27 26 25 24 24 24 25 26 26 27 28 27 25 25 26 27 27 27 28 28 28 28 29 29 28 28 28 28 29 29 29 28 28
7 8 9 9 10 11 12 12 13 13 13 13 14 13 12 11 12 12 12 13 14 15 16 17 18 19 20 20 21 22 22 24 24 25 26 27 27 27 27 27 28 30 31 31 31 30 29 28 28 27 27 27 27 27 26 25 24 25 26 26 26 26 27 28 27 26 26 27 27 28 28 29 29 29 29 30 29 29 28 28 28 28 29 29 29
6 8 9 9 10 11 12 13 13 14 14 14 14 13 13 12 12 12 12 12 14 15 16 17 18 19 20 21 22 23 23 24 25 26 26 25 25 26 26 27 28 29 30 30 30 29 29 28 27 26 26 26 26 26 26 26 25 26 27 27 27 27 27 27 28 28 27 27 28 29 29 30 30 30 31 31 31 30 29 29 28 28 29 29 29
6 7 8 9 10 11 12 13 14 15 15 15 14 14 14 13 13 13 13 13 14 15 16 17 18 19 21 22 23 24 24 25 24 24 24 24 25 26 27 27 28 29 29 29 29 28 27 27 26 26 26 25 25 25 25 26 26 27 28 28 28 28 27 27 28 29 29 29 29 30 30 31 31 32 32 32 32 31 31 30 29 29 29 29 30
7 7 8 9 10 11 12 13 14 15 15 16 16 15 15 14 14 14 15 15 15 16 17 18 19 20 21 23 24 24 24 24 23 22 23 25 26 27 28 28 28 28 28 28 28 27 26 26 26 26 26 25 25 25 25 26 27 27 28 29 29 29 28 28 29 29 29 29 30 31 31 32 32 33 33 33 33 32 31 31 30 30 29 30 31
7 8 8 9 10 11 12 12 14 15 16 16 16 16 16 15 16 16 16 17 17 18 18 19 20 21 22 23 23 24 24 23 23 23 24 26 27 28 28 28 28 28 28 28 27 26 26 26 26 26 26 25 25 25 26 27 28 28 28 29 30 31 30 30 30 30 30 30 30 31 32 33 33 34 34 34 34 33 32 32 31 31 31 31 32
8 8 9 9 10 11 12 13 13 14 15 16 17 17 17 17 17 17 17 18 19 20 21 21 22 22 23 23 23 23 23 23 23 24 25 27 27 28 29 29 28 28 28 27 27 27 26 26 26 26 26 26 26 26 27 28 29 29 29 30 31 32 32 32 32 32 33 32 31 32 32 33 34 35 34 34 35 34 34 33 33 33 32 32 33
8 9 9 10 10 11 12 13 14 15 15 16 17 18 18 18 18 18 18 20 21 22 23 24 24 24 24 25 24 24 23 23 24 25 26 27 28 28 30 30 30 29 29 28 28 27 27 26 26 26 26 26 27 28 28 30 31 31 31 32 32 33 33 33 33 34 35 35 33 33 33 33 34 35 35 35 35 35 35 35 34 34 34 34 34
10 10 11 11 11 12 13 14 15 16 16 17 18 18 19 20 19 20 20 20 21 22 23 25 25 26 26 26 25 25 25 25 25 26 27 28 28 29 30 31 32 31 31 30 29 28 28 27 27 27 27 28 29 29 30 31 32 33 34 34 35 34 34 34 33 35 38 37 35 35 34 34 35 35 36 36 36 37 37 37 36 36 35 35 35
11 12 13 14 14 14 14 15 16 17 18 19 19 20 21 21 21 22 22 21 21 22 23 24 26 27 27 27 27 27 27 26 27 27 28 28 28 29 30 32 33 32 32 31 30 30 30 29 29 29 29 29 31 31 31 32 33 34 36 37 37 37 37 35 33 36 39 38 36 36 36 35 35 36 37 37 38 38 38 39 38 37 37 37 37
14 14 15 15 16 17 17 18 19 19 20 21 21 22 23 23 23 23 24 23 23 23 23 24 25 26 27 28 29 30 29 29 28 29 29 29 29 29 30 31 33 33 33 32 32 31 31 31 31 31 31 31 32 33 33 34 35 36 38 39 39 40 39 36 35 37 40 38 37 38 37 37 37 37 38 39 39 40 40 40 40 40 38 38 38
17 17 17 17 18 19 20 21 22 22 23 23 24 24 25 26 26 25 25 25 25 25 25 26 26 27 28 29 30 31 31 31 31 30 30 30 30 30 30 31 33 34 34 33 33 33 33 32 32 33 33 33 34 34 35 36 37 39 40 40 40 41 40 39 40 41 40 39 39 39 39 38 39 40 40 40 41 41 42 42 42 42 40 40 39
19 19 20 20 20 21 22 23 24 25 25 26 26 27 27 27 28 27 27 26 27 27 28 28 28 28 29 30 31 32 32 32 32 32 32 31 31 31 31 31 32 33 33 34 34 34 34 34 34 34 35 35 36 37 37 37 39 41 41 41 42 42 42 42 43 43 42 41 40 40 39 40 41 43 43 43 44 44 44 44 45 44 42 41 40
21 21 22 22 23 24 24 25 26 27 28 28 29 29 29 29 29 28 27 27 28 29 30 30 30 30 31 31 32 33 33 34 34 34 34 34 34 33 32 32 32 33 34 34 34 34 35 35 35 36 36 37 38 38 39 39 41 41 41 43 43 43 43 43 44 44 44 43 41 40 41 42 43 46 46 45 45 46 46 47 47 46 44 42 41
24 24 24 25 25 25 26 27 28 30 30 31 31 31 31 30 29 28 27 28 29 30 31 31 32 32 32 32 32 33 33 34 35 35 35 36 36 36 34 33 33 34 35 35 34 35 36 36 37 38 38 39 39 40 40 41 42 42 42 43 43 43 43 44 44 45 44 43 40 40 42 44 46 46 45 45 46 47 48 48 48 48 46 44 43
27 27 27 27 27 28 28 29 30 32 32 32 32 32 32 31 30 28 28 29 30 31 31 31 32 33 33 34 34 34 34 35 35 36 37 37 38 38 36 35 35 35 36 36 36 36 36 37 38 39 40 40 41 41 42 43 43 44 44 44 43 44 44 44 45 45 45 43 40 41 41 43 47 47 45 46 48 49 50 50 50 49 48 46 45
30 30 29 30 30 31 31 31 31 33 33 33 33 33 33 31 30 29 30 30 31 31 31 31 33 34 35 35 35 35 36 36 37 37 38 39 39 39 38 37 36 36 36 36 37 38 38 39 40 41 41 42 42 43 44 45 45 45 46 45 46 46 45 45 45 44 45 44 42 43 42 44 51 51 47 48 50 50 51 51 51 51 49 48 47
33 33 33 33 34 34 34 33 33 33 33 34 34 34 33 31 31 31 31 31 31 31 31 32 33 35 35 36 36 36 37 37 38 39 39 40 40 40 40 39 39 38 37 37 38 39 40 41 41 43 43 44 44 45 46 47 47 47 47 47 48 49 47 45 45 44 45 45 43 43 42 45 53 54 51 50 52 52 52 52 53 52 51 50 50
35 35 36 36 37 37 36 35 34 34 33 34 34 34 33 33 33 33 32 32 32 32 33 34 35 35 36 36 37 38 38 38 39 39 40 41 41 41 41 41 41 40 40 40 40 41 41 42 43 44 44 45 46 46 47 48 48 48 48 46 48 50 48 46 45 45 45 46 44 42 42 44 50 53 52 52 52 52 52 52 52 52 52 52 52
Wind_Direction
61 60 57 53 53 54 55 54 54 55 57 60 62 65 67 68 68 67 64 60 56 51 17 318 293 284 283 298 318 328 332 333 332 324 318 315 312 309 307 306 307 305 304 304 303 302 300 298 295 294 295 295 295 295 295 296 296 297 298 299 300 301 301 301 301 300 300 300 301 302 302 302 303 303 305 306 306 308 308 308 308 308 308 309 309
67 66 64 61 59 58 58 58 58 59 59 60 61 62 64 66 67 68 67 65 63 62 55 27 343 332 332 336 338 335 330 323 317 311 308 304 301 303 304 304 304 302 301 301 301 300 298 295 294 294 295 295 296 295 296 297 297 297 297 298 299 299 299 299 299 300 300 300 301 302 302 302 303 304 304 305 305 306 306 307 307 307 309 309 309
72 69 69 67 65 63 61 60 60 61 61 61 62 63 64 66 67 68 69 69 69 70 68 63 56 48 42 41 40 30 18 3 342 329 316 309 309 309 308 307 305 304 303 302 302 301 300 298 299 300 299 299 299 300 301 301 301 301 301 302 302 302 302 302 302 302 303 303 303 304 304 305 306 306 307 308 310 311 312 313 313 313 314 314 314
75 72 71 71 70 68 66 64 63 63 63 63 64 65 67 70 71 72 71 72 71 71 70 67 64 60 58 57 58 58 54 50 44 39 29 20 13 2 352 342 335 330 326 323 320 316 315 314 316 316 316 316 316 317 317 317 317 316 316 315 315 314 313 311 310 309 309 310 310 311 312 312 312 312 313 314 316 316 316 316 315 315 315 315 313
76 73 72 72 72 72 71 69 68 67 67 67 67 68 69 72 76 77 77 77 76 74 73 70 66 62 60 59 59 57 54 50 46 44 43 40 35 31 24 15 6 358 354 351 346 341 337 337 338 336 335 334 333 332 332 332 331 329 327 325 324 322 321 319 317 316 315 316 316 318 318 317 316 315 315 315 315 314 312 311 311 312 312 311 311
79 75 73 72 72 73 73 72 72 72 71 71 70 70 70 71 73 77 79 80 79 77 75 72 66 63 61 59 59 56 52 45 40 37 40 37 30 27 22 12 4 357 353 350 346 342 340 340 340 339 337 336 335 333 333 332 331 329 327 325 323 322 321 320 320 319 319 319 319 318 317 315 314 313 313 312 310 309 308 309 310 310 310 310 310
80 77 74 71 71 72 73 74 74 74 74 73 73 72 72 71 72 74 76 77 78 77 75 73 67 64 62 62 60 58 53 47 40 37 40 37 28 26 20 10 1 355 351 348 345 343 343 342 339 339 338 337 335 334 332 331 329 327 325 323 322 320 320 319 319 319 319 319 319 317 316 314 313 312 310 309 308 308 309 310 310 309 309 309 310
78 75 72 69 67 67 70 72 74 74 74 73 73 73 72 71 70 70 73 74 75 76 75 74 71 66 63 63 61 60 57 51 45 42 42 38 31 26 20 11 1 356 352 350 347 346 345 342 339 338 337 335 333 330 328 326 325 323 321 320 319 318 316 315 315 314 315 314 314 313 312 312 311 310 308 307 307 308 309 309 308 308 309 309 310
74 73 69 67 65 65 66 68 71 73 73 72 71 70 70 69 68 67 69 72 75 77 77 77 75 71 66 66 66 64 63 60 55 52 50 45 39 31 23 13 5 359 355 353 350 349 346 342 338 336 335 333 331 328 326 325 324 322 321 321 320 318 316 315 315 313 313 311 311 310 310 310 309 309 308 307 309 310 310 310 308 308 309 308 308
69 70 67 64 63 63 62 63 66 70 72 73 72 71 70 69 68 68 67 69 73 76 77 77 76 73 70 67 68 69 68 66 63 61 59 53 46 36 25 13 4 359 355 354 350 349 348 343 340 337 335 333 332 330 328 327 325 324 323 323 322 321 320 318 317 316 314 313 313 313 312 310 309 309 307 307 309 311 310 309 308 308 308 307 307
64 64 61 59 58 58 57 59 61 65 69 71 72 72 72 71 69 68 68 69 71 74 76 76 74 70 69 65 65 66 64 61 57 54 50 44 37 29 16 4 356 351 348 347 346 346 345 343 340 337 335 333 332 331 329 328 325 324 323 323 323 322 321 319 318 317 316 315 314 314 312 309 308 308 306 306 309 309 309 307 306 306 306 306 306
61 59 56 54 53 55 54 53 54 57 61 66 67 66 65 65 64 62 63 63 65 66 69 71 71 65 59 55 52 51 47 41 37 32 29 23 17 11 1 352 346 343 341 340 340 340 340 338 336 334 332 331 331 330 329 328 326 325 324 324 323 322 322 321 320 318 316 315 315 313 311 309 309 309 308 308 308 308 307 306 306 306 306 306 306
58 57 54 51 50 53 54 51 50 49 51 56 58 57 55 53 49 45 45 46 46 44 45 48 51 48 40 33 26 22 20 15 13 10 8 2 358 354 348 343 339 336 335 335 335 335 333 331 329 328 327 327 327 326 325 324 323 323 323 323 322 322 321 320 318 315 315 315 315 312 311 310 310 310 309 309 308 307 307 306 306 305 305 305 305
55 54 52 49 44 46 52 51 47 43 42 43 43 44 40 36 29 22 22 19 18 14 12 14 16 19 15 10 4 360 360 358 357 355 354 350 347 343 339 336 333 332 331 331 331 329 327 326 324 324 323 322 321 320 319 318 318 318 318 318 318 318 317 316 313 312 313 314 312 310 311 311 310 309 308 307 307 306 306 305 304 303 303 303 303
52 51 49 46 40 30 34 44 43 38 34 29 26 26 23 16 6 360 359 359 358 356 354 353 355 359 358 356 354 353 353 353 352 350 348 346 342 339 336 333 333 332 331 330 328 326 324 323 322 321 320 319 317 316 315 314 313 313 313 313 313 313 312 311 310 310 311 310 309 309 309 309 309 308 307 306 306 306 305 305 304 303 303 303 302
48 48 47 44 40 28 12 6 10 21 24 22 16 14 11 3 351 345 345 349 350 349 348 348 351 354 355 355 356 357 357 356 355 353 352 348 345 341 337 336 336 335 333 331 328 326 325 324 323 322 320 318 316 314 313 312 311 310 309 309 309 309 308 308 308 308 308 307 307 307 307 307 307 307 307 307 306 306 305 304 304 303 303 303 303
41 44 44 42 40 34 24 355 330 335 360 11 13 12 11 6 353 345 345 349 351 352 351 350 352 353 355 358 359 1 1 359 356 354 351 346 343 338 335 335 334 332 330 327 324 324 324 324 323 322 320 318 316 315 314 313 311 309 308 307 307 307 306 306 307 306 306 306 306 307 307 307 307 307 307 306 305 304 303 302 302 302 302 302 302
34 36 37 38 38 37 33 22 346 315 331 351 6 10 11 12 4 353 352 349 351 352 352 351 350 349 350 352 354 355 353 350 347 345 341 336 334 330 327 328 326 323 321 319 318 318 318 317 317 317 316 315 315 315 315 314 312 310 308 307 306 305 305 305 306 306 306 306 306 306 306 307 307 306 306 304 303 302 302 301 300 300 300 300 299
29 30 29 31 34 36 34 30 21 338 312 322 345 1 1 2 357 350 345 340 340 339 341 341 340 338 336 336 339 342 340 337 336 333 331 328 326 323 322 322 321 318 316 315 314 314 313 312 311 311 311 310 310 310 311 311 310 309 308 307 306 305 304 304 304 304 304 304 304 304 304 305 305 305 304 303 302 301 301 300 300 300 300 299 298
28 28 26 25 26 29 31 28 24 14 330 300 302 317 326 332 331 330 328 328 326 324 325 327 327 326 324 326 328 331 331 330 329 328 326 325 323 322 321 322 320 318 317 316 316 314 313 312 311 311 310 309 307 306 305 305 305 304 304 304 304 303 302 302 301 301 301 301 301 301 301 302 302 302 302 301 301 301 301 301 302 301 300 299 298
29 29 27 25 23 22 24 22 18 12 355 322 302 298 301 305 308 312 316 318 319 317 318 320 321 322 322 323 326 327 327 327 326 325 325 324 324 323 323 323 322 320 320 319 318 317 315 315 314 313 312 310 308 306 304 303 302 301 301 302 302 302 301 301 300 299 299 299 299 299 299 300 300 301 301 301 301 301 302 302 302 301 300 299 298
29 31 30 28 25 21 18 15 10 5 357 342 321 312 308 306 305 307 311 314 316 316 316 320 321 321 323 325 326 326 326 326 326 326 326 326 326 325 325 325 324 323 322 321 320 319 318 317 317 316 315 313 310 308 306 305 304 302 302 302 301 301 301 300 300 299 299 299 298 298 299 299 300 300 301 301 301 302 302 302 302 301 300 298 297
28 32 33 30 26 24 21 15 8 1 356 348 335 327 323 319 316 316 318 320 321 321 321 323 324 324 326 327 327 327 327 327 327 328 328 328 328 328 327 327 326 326 325 323 322 321 320 319 319 318 318 316 313 312 310 309 308 306 305 304 303 302 301 301 300 299 299 299 299 298 298 299 300 301 301 302 302 303 303 303 302 301 299 297 295
25 29 31 29 24 22 20 17 13 7 3 355 344 335 332 331 330 329 328 328 327 327 328 327 328 328 328 329 329 329 328 329 329 330 330 330 330 330 329 328 328 328 326 325 323 321 320 319 319 318 319 318 316 315 314 313 311 310 309 308 308 306 305 303 302 301 300 300 299 298 298 299 300 301 301 301 302 303 303 304 303 301 299 297 295
19 21 23 23 20 18 15 13 10 8 8 4 356 345 339 338 336 335 332 330 328 329 330 329 330 330 329 330 330 329 330 331 331 332 333 333 333 332 331 330 330 329 328 326 324 322 320 319 318 318 318 317 316 315 314 314 313 312 311 311 312 311 309 308 306 304 302 301 299 298 298 299 300 300 300 301 302 302 303 303 302 300 299 298 297
11 10 11 13 13 12 9 6 3 0 0 360 357 350 345 342 340 338 334 331 330 330 330 330 333 331 330 331 332 332 334 335 335 336 337 336 336 334 333 333 332 332 330 327 325 324 322 320 319 318 317 316 315 314 313 312 311 312 312 313 313 312 312 311 310 307 305 302 300 298 298 298 299 299 299 300 300 301 301 300 300 299 298 297 296
4 2 1 2 4 4 1 357 354 351 349 348 347 345 342 340 339 337 335 333 331 329 330 332 335 334 334 334 335 337 338 338 337 338 337 337 336 335 334 334 334 334 332 329 327 325 324 322 320 319 318 317 315 313 312 310 309 309 310 312 312 312 312 312 311 309 307 304 301 299 297 297 297 297 298 300 301 302 302 301 301 300 298 298 296
358 356 353 353 354 355 354 349 344 342 339 338 337 337 337 337 337 337 337 336 333 331 332 335 337 338 338 336 336 337 338 337 337 337 336 335 334 333 332 332 332 331 330 328 327 325 323 322 321 319 318 317 316 314 312 311 309 308 309 309 309 309 310 310 309 308 307 305 303 300 298 297 297 297 299 301 303 304 305 304 303 302 300 299 298
349 351 348 347 349 349 351 349 341 337 332 329 328 329 331 332 334 335 336 336 333 332 333 335 338 339 338 336 336 336 337 337 335 334 332 330 329 328 327 327 326 326 325 323 322 321 320 319 319 318 317 316 316 315 314 313 311 309 308 308 307 307 307 307 306 306 306 305 303 301 300 299 298 299 300 302 304 306 306 306 305 304 302 301 299
341 346 346 346 348 349 352 353 348 341 334 327 323 322 322 323 326 328 330 330 330 330 330 332 335 336 336 335 333 333 333 331 329 327 325 324 323 323 323 322 322 321 319 318 317 316 316 316 316 315 315 315 315 316 315 314 312 309 308 308 307 306 306 306 305 305 305 305 304 302 301 301 301 301 302 303 305 306 306 306 306 306 304 302 300
336 342 347 349 350 352 353 355 355 350 343 333 324 319 317 315 317 319 321 323 324 325 326 327 329 331 330 329 327 325 324 322 322 321 320 319 319 320 320 319 319 317 316 314 313 312 311 311 312 312 312 312 313 315 315 313 311 308 306 306 306 306 306 305 304 304 304 305 304 303 302 302 302 302 302 303 304 305 306 305 305 305 304 302 300
333 340 347 350 353 355 353 353 355 355 352 345 334 323 316 313 312 312 313 314 316 318 319 320 321 322 321 320 318 317 316 315 316 316 316 316 317 318 318 318 317 316 315 314 312 311 310 309 309 310 310 311 312 313 313 312 309 307 306 306 307 306 306 306 304 304 304 304 303 302 301 301 301 301 301 301 303 304 304 305 305 304 303 301 299
332 339 346 350 354 355 354 353 353 354 355 352 347 336 323 316 313 311 309 308 309 310 312 313 313 314 314 313 312 312 311 312 313 314 315 315 316 316 317 318 318 317 315 314 314 312 310 309 309 309 310 310 311 311 311 310 308 307 306 307 307 307 306 307 306 304 303 303 302 301 300 300 300 300 300 300 302 303 304 304 305 304 303 300 297
332 337 342 347 352 353 353 353 352 352 353 352 351 347 338 327 319 316 312 310 308 307 307 307 308 309 309 309 309 309 310 311 313 314 315 315 316 317 319 320 321 319 317 316 314 312 311 310 309 310 310 310 310 309 309 309 308 307 307 308 308 308 306 306 306 305 303 302 301 300 300 300 299 299 299 299 300 300 301 302 302 302 301 299 297
327 332 337 342 348 351 352 353 353 353 352 350 347 346 344 338 330 324 320 316 311 307 306 305 306 307 307 308 308 310 311 313 314 315 316 317 318 318 320 321 323 323 321 319 317 315 312 311 311 310 309 309 308 308 308 308 308 308 309 310 310 309 307 305 305 306 305 303 302 301 300 300 299 299 298 298 298 298 299 300 300 299 298 297 296
318 325 331 337 343 348 350 352 353 353 352 349 344 341 339 337 334 329 325 320 314 310 310 309 307 307 307 308 310 312 313 314 315 316 317 317 317 317 317 319 322 324 324 322 320 318 314 312 311 310 308 308 307 307 308 308 309 310 311 311 311 311 308 305 304 306 306 305 303 302 300 299 299 298 298 298 297 298 298 299 298 297 296 295 294
309 318 326 333 339 343 347 349 351 351 350 349 345 340 335 331 328 325 324 321 316 313 312 311 309 309 309 311 313 313 313 315 316 316 316 315 315 315 315 317 319 322 324 323 321 319 316 314 312 310 309 308 308 308 307 308 309 310 311 311 311 311 310 305 303 304 304 303 301 300 299 299 298 297 297 297 297 298 298 298 297 296 295 294 293
301 312 320 327 332 336 341 343 346 347 347 346 344 341 337 331 325 321 318 315 313 312 310 310 310 312 313 313 314 314 315 316 316 316 315 314 314 314 315 316 318 319 321 321 320 318 317 315 312 310 309 309 309 308 309 309 310 310 311 311 311 311 311 307 302 302 303 301 300 299 299 298 297 297 296 297 297 297 297 296 296 295 294 293 292
294 303 312 319 325 329 333 336 340 341 342 341 340 338 335 333 328 322 315 311 309 308 308 308 309 312 314 315 315 315 316 316 315 315 315 314 315 315 315 317 317 317 317 318 317 318 317 315 312 310 309 309 309 309 309 310 310 311 312 310 309 310 310 308 304 303 302 299 298 298 299 298 298 297 297 296 296 296 295 294 294 294 293 292 291
282 293 302 310 316 321 325 329 333 336 336 336 335 332 330 330 329 324 318 314 311 308 306 306 307 309 310 313 315 315 315 314 313 314 314 314 315 316 316 317 317 316 315 315 315 316 315 314 312 309 308 308 308 307 308 310 310 311 310 308 307 308 308 308 306 302 297 295 296 299 300 299 298 297 296 295 295 295 294 293 293 293 292 291 290
278 285 292 299 307 312 316 321 324 327 329 329 330 329 327 326 324 323 321 320 317 312 309 306 306 307 307 309 311 311 311 311 311 311 312 313 313 314 315 316 317 316 314 313 313 313 312 312 311 309 307 307 307 308 309 309 309 309 308 306 306 306 305 306 306 300 294 294 297 299 300 300 299 297 296 295 294 293 293 292 292 292 292 291 290
281 285 289 293 299 304 308 313 317 319 319 321 324 325 325 323 320 319 318 319 318 315 313 310 308 307 307 307 306 305 305 306 308 309 310 310 310 311 313 314 315 314 313 313 312 311 310 309 309 308 306 306 306 306 308 308 308 307 305 304 306 306 304 306 306 298 294 296 297 297 298 298 298 298 296 295 293 292 292 292 292 291 291 290 289
281 286 289 293 297 299 303 309 313 314 314 315 317 320 323 322 319 315 315 315 315 315 314 313 311 310 308 305 303 302 301 302 303 305 307 308 308 307 308 310 312 312 312 312 311 310 309 308 308 306 306 306 304 304 306 307 307 305 303 305 307 305 305 305 302 296 296 297 294 293 295 296 298 298 296 294 293 292 291 291 291 291 290 290 289
279 284 289 294 297 298 300 305 310 311 311 312 313 315 318 319 318 314 311 312 312 313 313 312 312 311 308 306 304 303 302 302 301 302 304 305 305 304 303 305 307 308 309 310 310 309 308 307 307 307 307 308 306 305 307 308 306 304 304 307 305 304 304 303 300 299 299 298 293 292 294 296 297 298 297 295 293 292 291 291 291 291 291 290 290
277 282 288 293 296 297 299 302 306 308 308 308 309 312 314 315 316 312 308 308 309 310 310 310 310 309 308 307 306 304 303 302 301 301 301 302 302 301 299 300 302 304 306 307 307 306 306 306 306 307 307 307 307 307 308 307 304 304 305 305 303 304 304 302 301 301 301 299 297 296 295 295 296 296 297 297 294 293 292 291 291 291 291 290 290
278 282 286 290 293 295 297 299 302 304 304 305 306 308 310 311 312 309 304 303 305 306 306 306 306 305 305 305 304 303 303 302 301 300 299 299 298 298 297 298 299 301 303 304 304 303 303 304 304 305 305 305 306 306 306 304 303 304 304 303 303 304 303 302 302 301 300 301 302 300 294 292 294 295 295 297 295 294 293 291 291 291 291 291 290
279 282 284 288 291 292 293 296 298 299 300 301 303 305 307 308 308 305 301 300 301 302 302 302 301 301 302 302 301 300 300 299 298 298 297 296 296 296 296 297 299 300 301 302 302 301 301 302 302 303 303 304 304 304 303 302 303 302 300 301 304 303 302 302 301 300 301 302 302 298 291 286 288 290 291 294 295 294 293 292 291 291 291 291 290
281 282 285 288 290 290 291 293 295 296 298 299 301 303 304 305 304 302 300 299 299 300 300 299 298 299 299 299 299 299 297 296 295 295 294 294 294 295 296 297 298 298 299 300 300 299 300 300 300 301 301 301 301 301 301 301 302 301 298 300 303 302 301 301 300 300 301 302 301 297 291 284 282 285 287 290 293 294 294 292 291 290 290 291 290
282 284 286 288 290 290 291 291 293 294 296 298 300 301 302 302 301 300 299 298 298 298 298 297 297 297 298 298 298 297 296 294 294 294 294 294 294 295 296 296 296 295 296 297 297 298 298 298 299 299 300 300 301 301 302 302 303 302 300 299 302 303 302 301 300 300 300 300 299 297 293 283 280 283 286 289 292 293 292 291 290 289 289 290 290
283 285 287 289 290 290 290 290 292 293 295 298 298 299 299 299 299 299 298 298 298 297 296 296 296 296 297 297 297 296 295 294 294 294 295 295 295 296 297 296 295 295 295 295 295 296 297 298 299 299 300 301 302 302 303 303 303 303 302 299 300 302 301 300 300 299 298 298 298 296 292 284 281 282 285 288 290 291 291 290 289 289 289 290 290
282 285 287 289 290 290 290 290 291 293 295 297 296 297 297 297 298 298 298 298 298 297 296 296 296 296 296 296 296 295 295 295 295 294 294 294 295 296 296 296 295 296 296 296 296 297 297 298 298 299 300 301 302 302 302 302 302 302 302 298 296 299 300 300 300 298 297 297 296 294 290 285 282 283 284 286 288 290 291 291 289 289 289 289 289
Height
5868 5868 5867 5867 5867 5867 5867 5867 5867 5866 5866 5866 5866 5866 5866 5866 5866 5866 5866 5867 5867 5868 5868 5869 5869 5870 5870 5870 5871 5871 5871 5871 5871 5871 5872 5872 5872 5872 5872 5872 5872 5871 5871 5872 5872 5872 5872 5872 5872 5871 5871 5871 5871 5870 5870 5870 5870 5870 5870 5869 5869 5869 5868 5868 5868 5867 5867 5867 5866 5866 5865 5865 5864 5864 5864 5863 5863 5862 5862 5861 5861 5860 5860 5859 5859
5869 5869 5868 5868 5867 5867 5867 5867 5867 5867 5867 5867 5867 5867 5867 5867 5867 5867 5867 5867 5868 5868 5869 5869 5869 5869 5870 5870 5870 5870 5871 5871 5871 5871 5871 5872 5871 5871 5871 5871 5871 5871 5871 5871 5871 5871 5871 5871 5870 5870 5870 5870 5870 5870 5870 5869 5869 5869 5869 5868 5868 5868 5868 5867 5867 5867 5866 5866 5865 5865 5864 5864 5864 5863 5863 5862 5862 5861 5861 5860 5860 5859 5859 5859 5858
5870 5870 5869 5869 5868 5868 5868 5868 5868 5867 5867 5867 5867 5867 5867 5868 5868 5868 5868 5868 5869 5869 5869 5869 5869 5869 5870 5870 5870 5870 5870 5870 5871 5871 5871 5871 5871 5871 5871 5870 5870 5870 5870 5870 5870 5870 5870 5870 5870 5869 5869 5869 5869 5869 5869 5869 5868 5868 5868 5867 5867 5867 5867 5866 5866 5866 5865 5865 5865 5864 5864 5863 5863 5862 5862 5862 5861 5861 5860 5860 5859 5859 5858 5858 5857
5871 5871 5870 5870 5869 5869 5869 5868 5868 5868 5868 5868 5868 5868 5868 5868 5869 5869 5869 5869 5869 5869 5870 5870 5870 5870 5870 5870 5870 5870 5870 5870 5871 5871 5871 5871 5871 5870 5870 5870 5870 5870 5870 5869 5869 5869 5869 5869 5869 5869 5869 5868 5868 5868 5868 5868 5867 5867 5867 5866 5866 5866 5866 5866 5865 5865 5864 5864 5864 5864 5863 5863 5862 5862 5861 5861 5861 5860 5860 5859 5859 5858 5858 5857 5857
5872 5872 5871 5871 5870 5870 5870 5869 5869 5869 5869 5869 5869 5869 5869 5869 5870 5870 5870 5870 5870 5870 5870 5870 5870 5871 5871 5871 5871 5871 5871 5871 5871 5871 5871 5871 5870 5870 5870 5870 5870 5870 5869 5869 5869 5869 5869 5869 5869 5869 5868 5868 5868 5868 5867 5867 5867 5866 5866 5866 5865 5865 5865 5865 5864 5864 5864 5863 5863 5863 5863 5862 5862 5861 5861 5860 5860 5860 5859 5859 5858 5858 5857 5857 5857
5873 5873 5873 5872 5871 5871 5871 5870 5870 5870 5870 5870 5870 5870 5870 5870 5870 5871 5871 5871 5871 5871 5871 5871 5871 5871 5871 5871 5871 5871 5871 5871 5871 5871 5871 5871 5871 5871 5870 5870 5870 5870 5870 5869 5869 5869 5869 5869 5869 5868 5868 5868 5867 5867 5867 5867 5866 5866 5866 5865 5865 5865 5864 5864 5864 5863 5863 5863 5863 5862 5862 5862 5861 5861 5860 5860 5859 5859 5859 5858 5858 5857 5857 5856 5856
5874 5874 5873 5873 5872 5872 5872 5871 5871 5871 5871 5871 5871 5871 5871 5871 5871 5871 5872 5872 5872 5872 5872 5872 5872 5872 5872 5872 5872 5872 5872 5872 5871 5871 5872 5871 5871 5871 5871 5871 5870 5870 5870 5870 5870 5869 5869 5869 5869 5868 5868 5868 5867 5867 5866 5866 5866 5866 5866 5865 5865 5865 5864 5864 5863 5863 5862 5862 5862 5862 5861 5861 5861 5860 5860 5859 5859 5858 5858 5858 5857 5857 5856 5856 5855
5874 5874 5874 5874 5873 5873 5873 5872 5872 5872 5872 5872 5872 5872 5872 5872 5872 5872 5872 5872 5873 5873 5873 5873 5873 5873 5873 5873 5872 5872 5872 5872 5872 5872 5872 5872 5872 5871 5871 5871 5871 5871 5871 5870 5870 5870 5869 5869 5869 5868 5868 5868 5867 5867 5867 5866 5866 5866 5865 5865 5865 5864 5864 5864 5863 5863 5862 5862 5862 5861 5861 5860 5860 5860 5859 5858 5858 5858 5858 5857 5857 5856 5856 5855 5855
5875 5875 5875 5874 5874 5874 5873 5873 5873 5873 5873 5872 5872 5872 5872 5872 5873 5873 5873 5873 5873 5873 5873 5873 5873 5873 5873 5873 5873 5873 5873 5873 5873 5873 5873 5872 5872 5872 5872 5871 5871 5871 5871 5871 5870 5870 5870 5869 5869 5868 5868 5868 5867 5867 5866 5866 5866 5865 5865 5865 5864 5864 5864 5863 5863 5862 5862 5862 5861 5861 5860 5860 5860 5859 5858 5858 5858 5857 5857 5857 5856 5856 5855 5855 5854
5875 5875 5875 5875 5875 5875 5874 5874 5874 5874 5873 5873 5873 5873 5873 5873 5873 5873 5874 5874 5874 5874 5874 5874 5874 5874 5874 5874 5874 5874 5874 5873 5873 5873 5873 5873 5872 5872 5872 5872 5871 5871 5871 5871 5870 5870 5870 5869 5869 5868 5868 5867 5867 5867 5866 5866 5865 5865 5864 5864 5864 5863 5863 5863 5862 5862 5861 5861 5861 5860 5860 5859 5859 5858 5858 5857 5857 5857 5856 5856 5855 5855 5854 5854 5853
5875 5875 5875 5875 5875 5875 5875 5875 5875 5875 5875 5874 5874 5874 5874 5874 5874 5874 5874 5874 5874 5875 5875 5875 5875 5874 5874 5874 5874 5874 5874 5874 5874 5874 5873 5873 5873 5873 5872 5872 5872 5871 5871 5871 5870 5870 5870 5869 5869 5868 5868 5867 5867 5866 5866 5865 5865 5864 5864 5863 5863 5863 5862 5862 5862 5861 5861 5860 5860 5860 5859 5858 5858 5858 5857 5857 5856 5856 5855 5855 5854 5854 5853 5853 5852
5875 5876 5876 5876 5876 5876 5876 5876 5876 5876 5875 5875 5875 5874 5874 5874 5874 5874 5874 5875 5875 5875 5875 5875 5875 5875 5875 5875 5874 5874 5874 5874 5874 5874 5874 5873 5873 5873 5873 5872 5872 5871 5871 5871 5870 5870 5870 5869 5869 5868 5867 5867 5866 5865 5865 5864 5864 5864 5863 5863 5863 5862 5862 5861 5861 5860 5860 5859 5859 5859 5858 5858 5857 5857 5856 5856 5855 5855 5854 5854 5853 5853 5852 5852 5851
5876 5876 5876 5876 5876 5876 5876 5876 5876 5876 5876 5876 5875 5875 5875 5875 5875 5875 5875 5875 5875 5875 5875 5875 5875 5875 5875 5875 5875 5875 5874 5874 5874 5874 5874 5873 5873 5873 5872 5872 5872 5871 5871 5870 5870 5870 5869 5869 5868 5868 5867 5866 5866 5865 5864 5864 5863 5863 5863 5862 5862 5862 5861 5861 5860 5859 5859 5859 5858 5857 5857 5857 5856 5856 5855 5854 5854 5854 5853 5853 5852 5852 5851 5851 5850
5876 5876 5876 5876 5876 5876 5876 5876 5876 5876 5876 5876 5875 5875 5875 5875 5875 5875 5875 5875 5875 5875 5875 5875 5875 5875 5875 5875 5875 5874 5874 5874 5874 5874 5874 5873 5873 5872 5872 5872 5871 5871 5870 5870 5870 5869 5869 5868 5868 5867 5867 5866 5865 5865 5864 5863 5863 5863 5862 5862 5862 5861 5861 5860 5859 5859 5858 5858 5857 5856 5856 5856 5855 5855 5854 5854 5853 5853 5852 5852 5851 5850 5850 5849 5849
5877 5876 5876 5876 5876 5876 5876 5876 5876 5876 5876 5876 5875 5875 5875 5875 5875 5875 5875 5875 5875 5875 5875 5875 5875 5875 5875 5875 5875 5874 5874 5874 5874 5874 5873 5873 5873 5872 5872 5871 5871 5871 5870 5870 5869 5869 5868 5868 5867 5867 5866 5865 5865 5864 5864 5863 5863 5862 5861 5861 5861 5860 5860 5859 5858 5858 5857 5857 5856 5855 5855 5855 5854 5854 5853 5853 5852 5851 5851 5850 5849 5849 5848 5847 5847
5877 5877 5877 5876 5876 5876 5876 5876 5876 5876 5876 5876 5876 5875 5875 5875 5875 5875 5875 5875 5875 5875 5875 5875 5875 5875 5875 5875 5875 5875 5874 5874 5874 5874 5873 5873 5873 5872 5872 5871 5871 5871 5870 5870 5869 5869 5868 5868 5867 5866 5866 5865 5864 5864 5863 5862 5862 5861 5861 5860 5860 5860 5859 5858 5858 5857 5856 5856 5855 5855 5854 5854 5853 5853 5852 5851 5851 5850 5849 5849 5848 5847 5846 5845 5845
5877 5877 5877 5877 5876 5876 5876 5876 5876 5876 5876 5876 5876 5876 5876 5875 5875 5875 5875 5875 5875 5875 5875 5875 5875 5875 5875 5875 5875 5875 5874 5874 5874 5873 5873 5873 5872 5872 5872 5871 5871 5871 5870 5870 5869 5868 5868 5867 5867 5866 5865 5864 5864 5863 5862 5862 5861 5860 5860 5859 5859 5859 5858 5857 5856 5856 5855 5855 5854 5854 5853 5853 5852 5852 5851 5850 5849 5849 5848 5847 5846 5846 5845 5844 5843
5877 5877 5877 5877 5877 5876 5876 5876 5876 5876 5876 5876 5876 5876 5876 5876 5876 5876 5876 5876 5876 5876 5876 5875 5875 5875 5875 5875 5875 5875 5874 5874 5874 5873 5873 5873 5872 5872 5871 5871 5871 5870 5870 5869 5868 5868 5867 5867 5866 5865 5865 5864 5863 5862 5861 5861 5860 5859 5859 5858 5858 5857 5857 5856 5855 5854 5854 5853 5853 5852 5852 5851 5851 5850 5850 5849 5848 5847 5846 5846 5845 5844 5843 5842 5842
5877 5877 5877 5877 5877 5877 5876 5876 5876 5876 5876 5876 5876 5876 5876 5876 5876 5876 5876 5876 5876 5876 5876 5876 5875 5875 5875 5875 5875 5874 5874 5874 5873 5873 5873 5872 5872 5871 5871 5871 5870 5870 5869 5868 5868 5867 5866 5866 5865 5864 5863 5863 5862 5861 5860 5860 5859 5858 5858 5857 5856 5856 5855 5855 5854 5853 5853 5852 5851 5851 5850 5850 5849 5849 5848 5847 5846 5845 5845 5844 5843 5842 5841 5840 5840
5877 5877 5877 5877 5877 5877 5876 5876 5876 5876 5876 5876 5876 5876 5876 5876 5876 5876 5876 5876 5876 5876 5876 5875 5875 5875 5875 5874 5874 5874 5874 5873 5873 5872 5872 5871 5871 5871 5870 5870 5869 5869 5868 5867 5867 5866 5865 5865 5864 5863 5862 5861 5860 5860 5859 5859 5858 5858 5857 5856 5855 5855 5854 5854 5853 5852 5851 5851 5850 5849 5849 5848 5848 5847 5846 5845 5844 5843 5843 5842 5841 5840 5839 5838 5838
5877 5877 5877 5877 5877 5876 5876 5876 5876 5876 5875 5875 5875 5876 5876 5876 5876 5876 5876 5876 5876 5875 5875 5875 5875 5875 5874 5874 5873 5873 5873 5873 5872 5872 5871 5871 5870 5870 5869 5869 5868 5867 5867 5866 5865 5865 5864 5863 5863 5862 5861 5860 5859 5858 5858 5857 5857 5856 5855 5855 5854 5853 5852 5852 5851 5850 5850 5849 5848 5847 5846 5846 5846 5845 5844 5843 5842 5842 5841 5840 5839 5838 5837 5837 5836
5877 5877 5877 5877 5876 5876 5876 5876 5876 5875 5875 5875 5875 5875 5875 5875 5875 5875 5875 5875 5875 5875 5875 5874 5874 5874 5874 5873 5873 5873 5872 5872 5871 5871 5871 5870 5869 5869 5868 5868 5867 5866 5866 5865 5864 5863 5863 5862 5861 5861 5860 5859 5858 5857 5856 5856 5855 5854 5854 5853 5852 5851 5851 5850 5849 5848 5848 5847 5846 5845 5844 5844 5843 5843 5842 5841 5840 5839 5839 5838 5837 5836 5836 5835 5834
5877 5877 5877 5877 5876 5876 5876 5876 5875 5875 5875 5875 5875 5874 5874 5875 5874 5874 5874 5874 5874 5874 5874 5874 5873 5873 5873 5873 5872 5872 5871 5871 5870 5870 5869 5869 5868 5868 5867 5867 5866 5865 5864 5864 5863 5862 5861 5860 5860 5859 5858 5858 5856 5855 5855 5854 5853 5853 5852 5851 5850 5850 5849 5848 5847 5847 5846 5845 5844 5843 5842 5842 5841 5841 5840 5839 5838 5837 5836 5836 5835 5834 5834 5833 5833
5878 5878 5877 5877 5876 5876 5875 5875 5875 5875 5875 5875 5874 5874 5874 5874 5874 5874 5874 5873 5873 5873 5873 5873 5873 5872 5872 5872 5871 5871 5871 5870 5870 5869 5868 5868 5867 5867 5866 5865 5865 5864 5863 5862 5861 5861 5860 5859 5858 5857 5857 5856 5855 5854 5853 5852 5851 5851 5850 5849 5849 5848 5847 5846 5845 5845 5844 5843 5842 5841 5840 5840 5839 5838 5838 5837 5836 5835 5834 5833 5833 5832 5831 5831 5831
5878 5877 5877 5877 5876 5876 5875 5875 5875 5875 5875 5874 5874 5874 5874 5873 5873 5873 5873 5873 5872 5872 5872 5872 5872 5872 5871 5871 5871 5870 5870 5869 5869 5868 5868 5867 5866 5866 5865 5864 5864 5863 5862 5861 5860 5859 5858 5858 5857 5856 5855 5855 5853 5852 5851 5850 5849 5849 5848 5847 5847 5846 5845 5844 5844 5843 5842 5841 5840 5839 5838 5838 5837 5836 5835 5835 5834 5833 5832 5831 5830 5830 5829 5829 5828
5877 5877 5877 5876 5876 5875 5875 5875 5874 5874 5874 5874 5874 5874 5873 5873 5873 5873 5872 5872 5872 5872 5872 5872 5871 5871 5871 5870 5870 5869 5869 5869 5868 5868 5867 5866 5866 5865 5864 5863 5863 5862 5861 5860 5859 5858 5857 5857 5856 5855 5854 5853 5852 5851 5850 5848 5847 5847 5846 5845 5845 5844 5843 5843 5842 5841 5840 5839 5838 5837 5836 5836 5835 5835 5833 5832 5832 5831 5831 5830 5829 5828 5827 5827 5827
5877 5877 5876 5876 5876 5875 5875 5874 5874 5874 5874 5873 5873 5873 5873 5873 5872 5872 5872 5872 5871 5871 5871 5871 5871 5871 5870 5870 5869 5869 5868 5868 5867 5867 5866 5866 5865 5864 5863 5863 5862 5861 5860 5859 5858 5857 5856 5855 5855 5854 5853 5852 5850 5849 5848 5847 5845 5845 5844 5843 5843 5842 5841 5841 5840 5839 5838 5837 5837 5836 5835 5834 5834 5833 5832 5831 5829 5829 5828 5828 5827 5826 5825 5825 5825
5877 5876 5876 5875 5875 5875 5875 5874 5874 5873 5873 5873 5873 5872 5872 5872 5872 5872 5872 5871 5871 5870 5870 5870 5870 5870 5870 5869 5869 5868 5868 5867 5867 5866 5865 5865 5864 5863 5862 5862 5861 5860 5859 5858 5857 5856 5855 5854 5853 5852 5851 5850 5849 5848 5846 5845 5844 5843 5842 5842 5841 5840 5839 5839 5838 5837 5836 5836 5835 5834 5833 5832 5832 5831 5830 5829 5827 5826 5826 5825 5825 5824 5823 5822 5822
5876 5876 5876 5875 5875 5874 5874 5874 5873 5873 5873 5872 5872 5872 5872 5872 5871 5871 5871 5871 5870 5870 5870 5869 5869 5869 5869 5869 5868 5868 5867 5866 5866 5865 5864 5864 5863 5862 5861 5860 5860 5859 5858 5857 5855 5854 5853 5852 5851 5850 5849 5848 5847 5846 5845 5843 5842 5841 5840 5840 5839 5838 5837 5836 5836 5835 5835 5834 5833 5832 5831 5830 5829 5829 5828 5827 5825 5824 5823 5822 5822 5822 5821 5820 5819
5876 5876 5875 5875 5874 5874 5874 5874 5873 5873 5872 5872 5872 5872 5871 5871 5871 5871 5871 5870 5870 5869 5869 5869 5869 5868 5868 5868 5867 5867 5866 5866 5865 5864 5863 5862 5862 5861 5860 5859 5858 5857 5856 5855 5853 5852 5851 5850 5848 5847 5846 5845 5845 5844 5843 5842 5840 5839 5838 5837 5836 5836 5835 5834 5833 5833 5833 5832 5831 5830 5829 5828 5827 5826 5825 5824 5823 5822 5821 5820 5819 5819 5818 5817 5816
5875 5875 5875 5875 5874 5874 5873 5873 5873 5872 5872 5871 5871 5871 5871 5871 5870 5870 5870 5870 5869 5869 5868 5868 5868 5868 5867 5867 5866 5866 5865 5864 5864 5863 5862 5861 5860 5859 5858 5857 5856 5854 5853 5852 5851 5850 5848 5847 5846 5845 5844 5843 5842 5842 5841 5840 5838 5837 5835 5835 5834 5833 5833 5832 5831 5830 5830 5829 5828 5827 5826 5825 5824 5823 5822 5822 5821 5820 5819 5817 5817 5816 5815 5814 5813
5875 5874 5874 5874 5874 5873 5873 5872 5872 5872 5871 5871 5870 5870 5870 5870 5870 5869 5869 5869 5869 5868 5868 5867 5867 5866 5866 5866 5865 5864 5864 5863 5862 5861 5860 5859 5858 5857 5856 5855 5853 5852 5851 5849 5848 5847 5846 5844 5843 5842 5841 5840 5840 5839 5838 5837 5836 5835 5833 5832 5831 5830 5830 5830 5829 5828 5827 5826 5826 5825 5824 5823 5822 5821 5820 5819 5818 5817 5816 5815 5814 5814 5813 5812 5811
5874 5874 5874 5873 5873 5873 5872 5872 5871 5871 5871 5870 5870 5869 5869 5869 5868 5868 5868 5868 5867 5867 5867 5866 5865 5865 5865 5864 5863 5863 5862 5861 5861 5860 5859 5857 5856 5855 5854 5853 5852 5850 5848 5847 5846 5844 5843 5842 5841 5840 5839 5838 5837 5836 5835 5834 5834 5832 5831 5830 5829 5828 5827 5827 5826 5826 5824 5823 5823 5822 5821 5820 5819 5818 5817 5816 5815 5814 5813 5812 5811 5810 5810 5809 5808
5873 5873 5873 5873 5872 5872 5872 5871 5870 5870 5870 5869 5869 5868 5868 5868 5867 5867 5867 5867 5866 5866 5866 5865 5864 5864 5863 5862 5862 5861 5860 5860 5859 5858 5857 5856 5854 5853 5852 5851 5850 5848 5846 5845 5843 5842 5841 5839 5838 5837 5836 5835 5834 5833 5832 5831 5831 5830 5829 5828 5827 5826 5825 5824 5823 5823 5822 5821 5820 5819 5817 5816 5816 5815 5814 5813 5812 5812 5811 5810 5809 5807 5806 5806 5805
5873 5872 5872 5872 5872 5871 5871 5870 5870 5869 5869 5869 5868 5868 5867 5867 5866 5866 5866 5865 5865 5864 5864 5864 5863 5862 5861 5861 5860 5859 5859 5858 5857 5856 5855 5854 5853 5851 5850 5849 5848 5846 5844 5843 5841 5840 5838 5837 5836 5835 5834 5833 5831 5830 5829 5829 5828 5827 5826 5825 5824 5824 5823 5822 5820 5820 5819 5818 5817 5815 5814 5813 5812 5811 5810 5810 5809 5808 5807 5807 5805 5804 5803 5802 5802
5872 5872 5871 5871 5871 5870 5870 5869 5869 5868 5868 5867 5867 5867 5866 5866 5866 5865 5865 5864 5864 5863 5862 5862 5862 5861 5860 5859 5858 5858 5857 5857 5856 5855 5854 5852 5851 5849 5848 5847 5846 5844 5843 5841 5839 5838 5836 5835 5834 5833 5831 5830 5829 5828 5827 5826 5825 5825 5824 5823 5822 5821 5820 5819 5818 5817 5816 5815 5813 5812 5811 5810 5809 5808 5807 5806 5805 5805 5804 5803 5802 5801 5800 5799 5798
5871 5871 5871 5870 5870 5870 5869 5869 5868 5867 5867 5866 5866 5866 5865 5865 5865 5864 5864 5863 5862 5862 5861 5860 5860 5859 5859 5858 5857 5856 5856 5855 5854 5853 5852 5850 5849 5847 5846 5845 5844 5842 5841 5839 5837 5836 5834 5833 5832 5831 5829 5828 5827 5826 5825 5824 5823 5822 5821 5820 5819 5818 5817 5816 5815 5814 5813 5812 5811 5809 5808 5807 5806 5805 5804 5803 5802 5801 5801 5800 5799 5797 5796 5795 5795
5870 5870 5870 5869 5869 5869 5868 5868 5867 5866 5866 5865 5865 5864 5864 5863 5863 5863 5862 5862 5861 5860 5860 5859 5858 5858 5857 5857 5856 5855 5854 5853 5852 5851 5850 5849 5847 5845 5844 5843 5842 5840 5839 5837 5835 5834 5833 5832 5830 5829 5827 5827 5826 5824 5823 5822 5821 5820 5819 5818 5816 5815 5814 5813 5812 5811 5810 5809 5808 5806 5805 5804 5803 5802 5801 5800 5799 5798 5797 5797 5795 5794 5793 5792 5791
5869 5869 5869 5868 5868 5868 5867 5867 5866 5866 5865 5865 5864 5863 5863 5862 5862 5861 5860 5860 5859 5859 5858 5857 5857 5856 5855 5855 5854 5853 5852 5851 5850 5849 5848 5846 5845 5843 5841 5840 5840 5838 5837 5835 5833 5832 5831 5830 5829 5827 5826 5825 5824 5822 5821 5820 5818 5818 5817 5815 5814 5812 5811 5810 5810 5808 5807 5805 5804 5803 5802 5801 5800 5799 5798 5797 5795 5794 5794 5793 5792 5791 5790 5789 5788
5868 5868 5868 5867 5867 5867 5866 5866 5865 5865 5864 5864 5863 5862 5862 5861 5860 5860 5859 5858 5858 5857 5856 5855 5855 5855 5854 5853 5852 5851 5850 5849 5848 5847 5845 5844 5843 5841 5839 5838 5837 5836 5834 5833 5831 5830 5829 5827 5826 5825 5824 5822 5821 5820 5818 5817 5816 5815 5814 5812 5811 5810 5808 5807 5807 5805 5803 5802 5801 5800 5799 5798 5797 5795 5794 5793 5792 5790 5790 5789 5788 5787 5786 5785 5784
5867 5867 5867 5866 5866 5866 5865 5864 5864 5864 5863 5863 5862 5861 5861 5860 5859 5858 5857 5857 5856 5855 5854 5854 5853 5852 5852 5851 5850 5849 5848 5847 5846 5845 5844 5842 5840 5839 5837 5835 5834 5833 5832 5831 5829 5828 5826 5825 5823 5822 5820 5819 5818 5817 5815 5814 5813 5812 5811 5809 5808 5807 5806 5805 5804 5802 5799 5799 5798 5797 5795 5794 5793 5792 5790 5789 5788 5786 5785 5784 5784 5783 5782 5781 5780
5866 5866 5865 5865 5864 5864 5864 5863 5863 5862 5862 5861 5861 5860 5859 5858 5857 5856 5855 5855 5854 5853 5853 5852 5851 5850 5849 5848 5847 5846 5846 5845 5844 5843 5842 5840 5839 5837 5834 5833 5831 5830 5829 5828 5827 5825 5824 5822 5821 5819 5817 5816 5815 5813 5812 5811 5810 5809 5807 5806 5805 5803 5802 5802 5801 5798 5796 5795 5794 5792 5791 5790 5789 5788 5787 5785 5784 5783 5781 5780 5779 5778 5777 5776 5775
5864 5864 5863 5863 5863 5862 5862 5861 5861 5861 5860 5859 5859 5858 5857 5856 5855 5854 5853 5853 5852 5851 5851 5850 5849 5848 5847 5846 5845 5844 5843 5843 5842 5841 5839 5838 5837 5835 5833 5831 5829 5828 5826 5825 5824 5822 5821 5820 5818 5816 5815 5814 5812 5811 5809 5808 5807 5805 5803 5803 5802 5799 5798 5799 5797 5794 5792 5792 5790 5789 5787 5786 5785 5784 5783 5782 5780 5779 5777 5776 5774 5774 5773 5772 5771
5862 5862 5861 5861 5861 5860 5860 5859 5859 5858 5858 5857 5856 5856 5855 5854 5853 5852 5851 5851 5850 5849 5848 5847 5847 5846 5845 5843 5842 5841 5840 5840 5839 5837 5836 5835 5834 5833 5831 5830 5827 5825 5824 5822 5821 5819 5817 5816 5815 5813 5811 5810 5809 5807 5806 5804 5803 5801 5800 5799 5797 5795 5795 5794 5792 5790 5789 5788 5786 5785 5783 5782 5781 5780 5779 5778 5776 5775 5773 5772 5770 5769 5768 5767 5766
5859 5859 5859 5859 5859 5858 5858 5857 5857 5856 5855 5855 5854 5853 5853 5852 5851 5850 5849 5848 5847 5847 5846 5845 5844 5843 5841 5840 5839 5837 5837 5836 5835 5834 5833 5832 5831 5830 5829 5827 5825 5823 5821 5819 5818 5816 5814 5813 5811 5810 5808 5806 5805 5803 5802 5801 5799 5798 5796 5795 5792 5791 5791 5789 5787 5786 5785 5783 5782 5780 5779 5778 5777 5776 5775 5774 5772 5771 5769 5767 5766 5765 5764 5763 5761
5857 5857 5857 5857 5856 5856 5855 5855 5854 5853 5853 5852 5851 5851 5850 5849 5848 5847 5846 5846 5845 5844 5843 5842 5841 5840 5838 5837 5835 5834 5833 5832 5831 5831 5830 5828 5827 5827 5826 5824 5822 5820 5818 5816 5815 5813 5811 5810 5808 5807 5805 5803 5801 5800 5799 5797 5796 5795 5793 5790 5788 5788 5786 5784 5783 5781 5780 5779 5777 5776 5775 5774 5773 5771 5770 5769 5768 5766 5765 5763 5762 5760 5759 5758 5757
5854 5854 5854 5854 5854 5853 5853 5852 5851 5850 5850 5849 5849 5848 5847 5846 5845 5845 5844 5843 5842 5841 5840 5839 5838 5837 5835 5834 5833 5831 5830 5829 5828 5827 5826 5824 5823 5823 5822 5821 5819 5817 5815 5813 5811 5809 5808 5806 5804 5803 5802 5800 5798 5797 5795 5793 5792 5791 5789 5786 5785 5784 5782 5780 5778 5777 5775 5774 5773 5772 5771 5770 5768 5767 5766 5764 5763 5761 5760 5759 5757 5756 5755 5754 5752
5850 5851 5851 5851 5851 5850 5849 5849 5848 5847 5847 5846 5845 5845 5844 5843 5842 5841 5841 5840 5839 5838 5837 5836 5835 5834 5832 5831 5830 5828 5827 5826 5824 5823 5822 5821 5819 5818 5817 5816 5815 5813 5811 5809 5807 5806 5804 5802 5801 5800 5798 5796 5795 5794 5792 5790 5788 5786 5783 5782 5781 5779 5778 5776 5774 5773 5771 5770 5770 5768 5766 5765 5763 5762 5761 5759 5758 5757 5756 5754 5753 5751 5750 5749 5747
5847 5847 5847 5847 5847 5847 5846 5845 5845 5844 5844 5843 5842 5841 5840 5840 5839 5838 5837 5837 5836 5835 5834 5833 5832 5831 5829 5828 5826 5825 5823 5822 5821 5819 5818 5817 5815 5814 5813 5812 5811 5809 5808 5806 5804 5802 5801 5799 5797 5796 5794 5792 5791 5789 5787 5785 5783 5781 5779 5777 5776 5775 5773 5772 5770 5769 5767 5766 5765 5764 5762 5759 5757 5757 5756 5754 5754 5752 5751 5749 5747 5746 5745 5744 5742
5844 5844 5844 5844 5843 5843 5842 5841 5841 5841 5840 5839 5838 5837 5837 5836 5835 5835 5834 5833 5832 5832 5831 5830 5828 5827 5826 5824 5823 5821 5820 5818 5817 5815 5814 5813 5811 5810 5809 5808 5806 5805 5804 5802 5801 5799 5797 5795 5794 5792 5790 5788 5787 5785 5783 5781 5779 5777 5775 5772 5771 5770 5768 5767 5766 5764 5761 5760 5760 5759 5757 5754 5753 5752 5750 5749 5748 5747 5745 5744 5742 5741 5740 5738 5736
5840 5840 5840 5839 5839 5838 5838 5837 5837 5837 5836 5835 5834 5834 5833 5832 5832 5831 5830 5829 5829 5828 5827 5826 5825 5824 5822 5821 5819 5818 5816 5815 5813 5812 5810 5808 5807 5806 5805 5803 5802 5800 5799 5797 5796 5794 5793 5791 5790 5788 5786 5784 5782 5780 5778 5776 5775 5773 5770 5768 5767 5765 5763 5762 5761 5759 5756 5755 5754 5754 5752 5750 5748 5746 5745 5744 5743 5741 5740 5739 5738 5736 5734 5733 5731